DW7995 Weather Reports


time (UTC)temp
C
wind
direction
speed
KPH
gust
KPH
rain 1hr
cm
rain 24hr
cm
rain mn
cm
humidity
%
barometer
mb
20260507180540 20 163 6.4 16.1 0.00 0.00 0.00 39 1021.2
20260507180048 20 151 8.0 16.1 0.00 0.00 0.00 40 1021.2
20260507175539 20 153 8.0 16.1 0.00 0.00 0.00 39 1021.2
20260507175039 20 128 6.4 16.1 0.00 0.00 0.00 41 1021.2
20260507174555 20 132 6.4 16.1 0.00 0.00 0.00 42 1021.2
20260507174039 20 154 6.4 16.1 0.00 0.00 0.00 42 1021.2
20260507173540 20 166 6.4 16.1 0.00 0.00 0.00 40 1021.2
20260507173113 20 72 8.0 19.3 0.00 0.00 0.00 41 1021.2
20260507172542 20 194 6.4 19.3 0.00 0.00 0.00 43 1021.2
20260507172039 20 123 8.0 12.9 0.00 0.00 0.00 41 1021.2
20260507171548 20 212 6.4 14.5 0.00 0.00 0.00 40 1021.2
20260507171040 20 155 4.8 19.3 0.00 0.00 0.00 40 1021.2
20260507170539 20 192 8.0 19.3 0.00 0.00 0.00 41 1021.2
20260507170111 20 179 8.0 16.1 0.00 0.00 0.00 40 1021.2
20260507165540 20 87 3.2 12.9 0.00 0.00 0.00 39 1021.2
20260507165039 20 68 6.4 12.9 0.00 0.00 0.00 39 1021.2
20260507164555 19 62 4.8 16.1 0.00 0.00 0.00 39 1021.2
20260507164039 18 65 6.4 16.1 0.00 0.00 0.00 42 1021.2
20260507163542 18 90 4.8 14.5 0.00 0.00 0.00 43 1021.2
20260507163048 18 45 4.8 14.5 0.00 0.00 0.00 44 1021.2
20260507162537 18 63 3.2 11.3 0.00 0.00 0.00 44 1021.2
20260507162043 17 40 3.2 12.9 0.00 0.00 0.00 48 1021.2
20260507161600 17 66 4.8 12.9 0.00 0.00 0.00 47 1021.2
20260507161040 17 61 6.4 12.9 0.00 0.00 0.00 47 1021.2
20260507160539 17 81 3.2 9.7 0.00 0.00 0.00 51 1021.2
20260507160045 17 127 4.8 9.7 0.00 0.00 0.00 52 1021.2
20260507155540 16 88 3.2 9.7 0.00 0.00 0.00 53 1021.2
20260507155037 16 94 3.2 11.3 0.00 0.00 0.00 54 1021.2
20260507154545 16 49 4.8 11.3 0.00 0.00 0.00 55 1021.2
20260507154039 15 89 4.8 11.3 0.00 0.00 0.00 56 1021.2
20260507153540 15 81 4.8 11.3 0.00 0.00 0.00 58 1021.2
20260507153056 15 28 3.2 9.7 0.00 0.00 0.00 58 1021.2
20260507152540 15 57 4.8 11.3 0.00 0.00 0.00 60 1021.2
20260507152039 14 63 4.8 11.3 0.00 0.00 0.00 59 1021.2
20260507151548 14 72 1.6 9.7 0.00 0.00 0.00 59 1021.2
20260507151039 13 67 4.8 8.0 0.00 0.00 0.00 59 1021.2
20260507150539 13 46 3.2 11.3 0.00 0.00 0.00 59 1021.2
20260507150100 13 65 6.4 11.3 0.00 0.00 0.00 58 1021.2
20260507145539 13 63 3.2 11.3 0.00 0.00 0.00 58 1021.2
20260507145041 13 66 3.2 11.3 0.00 0.00 0.00 58 1021.2
20260507144548 13 58 3.2 8.0 0.00 0.00 0.00 58 1021.2
20260507144043 13 72 3.2 8.0 0.00 0.00 0.00 58 1021.2
20260507143539 12 131 3.2 8.0 0.00 0.00 0.00 58 1021.2
20260507143048 12 104 3.2 8.0 0.00 0.00 0.00 58 1021.2
20260507142539 12 74 1.6 6.4 0.00 0.00 0.00 59 1021.2
20260507142039 11 165 3.2 8.0 0.00 0.00 0.00 60 1021.2
20260507141619 11 0 1.6 8.0 0.00 0.00 0.00 63 1021.2
20260507141041 11 64 4.8 8.0 0.00 0.00 0.00 61 1021.2
20260507140540 11 72 3.2 11.3 0.00 0.00 0.00 61 1021.2
20260507140049 11 71 4.8 11.3 0.00 0.00 0.00 61 1021.2
20260507135539 11 68 3.2 8.0 0.00 0.00 0.00 60 1021.2
20260507135038 11 75 0.0 4.8 0.00 0.00 0.00 60 1021.2
20260507134549 11 79 1.6 4.8 0.00 0.00 0.00 60 1021.2
20260507134038 11 75 0.0 3.2 0.00 0.00 0.00 59 1021.2
20260507133539 11 0 0.0 4.8 0.00 0.00 0.00 61 1021.2
20260507133048 10 68 1.6 4.8 0.00 0.00 0.00 61 1021.2
20260507132539 10 68 0.0 4.8 0.00 0.00 0.00 61 1021.2
20260507132035 10 0 0.0 4.8 0.00 0.00 0.00 62 1021.2
20260507131545 9 0 0.0 4.8 0.00 0.00 0.00 63 1021.2
20260507131038 8 0 0.0 0.0 0.00 0.00 0.00 62 1021.2
20260507130538 7 0 0.0 0.0 0.00 0.00 0.00 63 1021.2
20260507130045 6 0 0.0 0.0 0.00 0.00 0.00 65 1021.2
20260507125538 6 0 0.0 0.0 0.00 0.00 0.00 63 1021.2
20260507125040 5 0 0.0 0.0 0.00 0.00 0.00 64 1021.2
20260507124547 4 0 0.0 0.0 0.00 0.00 0.00 66 1021.2
20260507124039 3 0 0.0 0.0 0.00 0.00 0.00 67 1021.2
20260507123539 3 0 0.0 0.0 0.00 0.00 0.00 68 1021.2
20260507123043 2 0 0.0 0.0 0.00 0.00 0.00 71 1021.2
20260507122538 2 0 0.0 0.0 0.00 0.00 0.00 69 1021.2
20260507122039 2 0 0.0 0.0 0.00 0.00 0.00 68 1021.2
20260507121550 2 0 0.0 0.0 0.00 0.00 0.00 69 1021.2
20260507121035 2 0 0.0 0.0 0.00 0.00 0.00 68 1021.2
20260507120538 2 0 0.0 0.0 0.00 0.00 0.00 67 1021.2
20260507120059 2 0 0.0 0.0 0.00 0.00 0.00 66 1021.2
20260507115539 2 0 0.0 0.0 0.00 0.00 0.00 65 1021.2
20260507115040 3 0 0.0 0.0 0.00 0.00 0.00 65 1021.2
20260507114546 3 0 0.0 0.0 0.00 0.00 0.00 64 1021.2
20260507114038 3 0 0.0 0.0 0.00 0.00 0.00 63 1021.2
20260507113539 3 0 0.0 0.0 0.00 0.00 0.00 62 1021.2
20260507113050 3 0 0.0 0.0 0.00 0.00 0.00 62 1021.2
20260507112538 3 0 0.0 0.0 0.00 0.00 0.00 61 1021.2
20260507112038 4 0 0.0 0.0 0.00 0.00 0.00 62 1021.2
20260507111547 4 0 0.0 0.0 0.00 0.00 0.00 61 1021.2
20260507111039 4 0 0.0 0.0 0.00 0.00 0.00 61 1021.2
20260507110540 4 0 0.0 0.0 0.00 0.00 0.00 59 1021.2
20260507110043 5 0 0.0 0.0 0.00 0.00 0.00 59 1021.2
20260507105537 5 0 0.0 0.0 0.00 0.00 0.00 58 1021.2
20260507105039 5 0 0.0 0.0 0.00 0.00 0.00 57 1021.2
20260507104547 5 0 0.0 0.0 0.00 0.00 0.00 56 1021.2
20260507104038 6 0 0.0 0.0 0.00 0.00 0.00 54 1021.2
20260507103539 6 0 0.0 0.0 0.00 0.00 0.00 56 1021.2
20260507103047 6 0 0.0 1.6 0.00 0.00 0.00 55 1021.2
20260507102539 6 0 0.0 1.6 0.00 0.00 0.00 55 1021.2
20260507102042 6 0 0.0 3.2 0.00 0.00 0.00 54 1021.2
20260507101552 6 0 0.0 6.4 0.00 0.00 0.00 53 1021.2
20260507101038 6 0 1.6 6.4 0.00 0.00 0.00 54 1021.2
20260507100542 6 221 3.2 6.4 0.00 0.00 0.00 55 1021.2
20260507100047 5 253 1.6 4.8 0.00 0.00 0.00 58 1021.2
20260507095538 5 0 0.0 0.0 0.00 0.00 0.00 60 1021.2
20260507095037 5 0 0.0 0.0 0.00 0.00 0.00 58 1021.2
20260507094550 5 0 0.0 0.0 0.00 0.00 0.00 57 1021.2
20260507094039 5 0 0.0 0.0 0.00 0.00 0.00 59 1021.2
20260507093539 5 0 0.0 0.0 0.00 0.00 0.00 59 1021.2
20260507093048 5 0 0.0 0.0 0.00 0.00 0.00 60 1021.2
20260507092539 5 0 0.0 0.0 0.00 0.00 0.00 62 1021.2
20260507092042 5 0 0.0 0.0 0.00 0.00 0.00 60 1021.2
20260507091549 5 0 0.0 0.0 0.00 0.00 0.00 60 1021.2
20260507091039 5 0 0.0 0.0 0.00 0.00 0.00 60 1021.2
20260507090539 5 0 0.0 0.0 0.00 0.00 0.00 58 1021.2
20260507090048 6 0 0.0 0.0 0.00 0.00 0.00 58 1021.2
20260507085538 6 0 0.0 0.0 0.00 0.00 0.00 56 1021.2
20260507085041 6 0 0.0 0.0 0.00 0.00 0.00 55 1021.2
20260507084549 6 0 0.0 0.0 0.00 0.00 0.00 54 1021.2
20260507084040 7 0 0.0 0.0 0.00 0.00 0.00 53 1021.2
20260507083538 7 0 0.0 0.0 0.00 0.00 0.00 53 1021.2
20260507083047 7 0 0.0 0.0 0.00 0.00 0.00 53 1021.2
20260507082539 7 0 0.0 0.0 0.00 0.00 0.00 53 1021.2
20260507082041 6 0 0.0 0.0 0.00 0.00 0.00 55 1021.2
20260507081551 6 0 0.0 0.0 0.00 0.00 0.00 56 1021.2
20260507081040 6 0 0.0 0.0 0.00 0.00 0.00 57 1021.2
20260507080540 6 0 0.0 0.0 0.00 0.00 0.00 57 1021.2
20260507080051 6 0 0.0 0.0 0.00 0.00 0.00 56 1021.2
20260507075540 6 0 0.0 0.0 0.00 0.00 0.00 57 1021.2
20260507075040 6 0 0.0 0.0 0.00 0.00 0.00 57 1021.2
20260507074556 6 0 0.0 0.0 0.00 0.00 0.00 57 1021.2
20260507074039 6 0 0.0 0.0 0.00 0.00 0.00 57 1021.2
20260507073540 6 0 0.0 0.0 0.00 0.00 0.00 57 1021.2
20260507073121 6 0 0.0 0.0 0.00 0.00 0.00 56 1021.2
20260507072540 6 0 0.0 0.0 0.00 0.00 0.00 55 1021.2
20260507072039 6 0 0.0 0.0 0.00 0.00 0.00 55 1021.2
20260507071546 7 0 0.0 0.0 0.00 0.00 0.00 53 1021.2
20260507071040 7 0 0.0 0.0 0.00 0.00 0.00 52 1021.2
20260507070539 7 0 0.0 0.0 0.00 0.00 0.00 51 1021.2
20260507070051 7 0 0.0 0.0 0.00 0.00 0.00 51 1021.2
20260507065540 7 0 0.0 0.0 0.00 0.00 0.00 52 1021.2
20260507065041 7 0 0.0 0.0 0.00 0.00 0.00 51 1021.2
20260507064604 7 0 0.0 3.2 0.00 0.00 0.00 51 1021.2
20260507064040 7 0 0.0 3.2 0.00 0.00 0.00 52 1021.2
20260507063540 7 0 0.0 0.0 0.00 0.00 0.00 52 1021.2
20260507063057 7 0 0.0 0.0 0.00 0.00 0.00 53 1021.2
20260507062540 7 0 0.0 3.2 0.00 0.00 0.00 52 1021.2
20260507062040 7 0 0.0 3.2 0.00 0.00 0.00 52 1021.2
20260507061546 7 219 0.0 0.0 0.00 0.00 0.00 51 1021.2
20260507061039 7 0 0.0 0.0 0.00 0.00 0.00 52 1021.2
20260507060540 7 0 0.0 0.0 0.00 0.00 0.00 53 1021.2
20260507060051 7 0 0.0 0.0 0.00 0.00 0.00 52 1021.2
20260507055540 7 0 0.0 0.0 0.00 0.00 0.00 51 1021.2
20260507055040 7 0 0.0 0.0 0.00 0.00 0.00 51 1021.2
20260507054544 7 0 0.0 0.0 0.00 0.00 0.00 51 1021.2
20260507054039 7 0 0.0 0.0 0.00 0.00 0.00 50 1021.2
20260507053539 7 0 0.0 0.0 0.00 0.00 0.00 50 1021.2
20260507053045 8 0 0.0 1.6 0.00 0.00 0.00 49 1021.2
20260507052540 8 0 0.0 1.6 0.00 0.00 0.00 49 1021.2
20260507052039 8 276 0.0 1.6 0.00 0.00 0.00 50 1021.2
20260507051551 8 0 0.0 1.6 0.00 0.00 0.00 49 1021.2
20260507051042 8 0 0.0 0.0 0.00 0.00 0.00 50 1021.2
20260507050540 8 0 0.0 0.0 0.00 0.00 0.00 49 1021.2
20260507050058 8 0 0.0 0.0 0.00 0.00 0.00 50 1021.2
20260507045540 8 0 0.0 0.0 0.00 0.00 0.00 49 1021.2
20260507045040 8 0 0.0 0.0 0.00 0.00 0.00 50 1021.2
20260507044549 8 0 0.0 0.0 0.00 0.00 0.00 49 1021.2
20260507044039 8 0 0.0 0.0 0.00 0.00 0.00 50 1021.2
20260507043540 8 0 0.0 0.0 0.00 0.00 0.00 48 1021.2
20260507043051 8 0 0.0 0.0 0.00 0.00 0.00 50 1021.2
20260507042539 8 0 0.0 0.0 0.00 0.00 0.00 49 1021.2
20260507042040 8 0 0.0 0.0 0.00 0.00 0.00 48 1021.2
20260507041550 8 0 0.0 0.0 0.00 0.00 0.00 48 1021.2
20260507041039 8 0 0.0 0.0 0.00 0.00 0.00 47 1021.2
20260507040540 9 0 0.0 0.0 0.00 0.00 0.00 46 1021.2
20260507040046 9 0 0.0 0.0 0.00 0.00 0.00 46 1021.2
20260507035539 10 0 0.0 0.0 0.00 0.00 0.00 45 1021.2
20260507035040 10 0 0.0 0.0 0.00 0.00 0.00 44 1021.2
20260507034615 10 0 0.0 0.0 0.00 0.00 0.00 43 1021.2
20260507034040 10 0 0.0 0.0 0.00 0.00 0.00 43 1021.2
20260507033539 10 0 0.0 0.0 0.00 0.00 0.00 42 1021.2
20260507033103 11 0 0.0 0.0 0.00 0.00 0.00 41 1021.2
20260507032538 11 0 0.0 0.0 0.00 0.00 0.00 41 1021.2
20260507032039 11 0 0.0 0.0 0.00 0.00 0.00 40 1021.2
20260507031548 11 0 0.0 0.0 0.00 0.00 0.00 40 1021.2
20260507031040 11 0 0.0 0.0 0.00 0.00 0.00 40 1021.2
20260507030543 11 0 0.0 0.0 0.00 0.00 0.00 39 1021.2
20260507030047 11 0 0.0 0.0 0.00 0.00 0.00 40 1021.2
20260507025539 11 0 0.0 0.0 0.00 0.00 0.00 40 1021.2
20260507025039 11 0 0.0 0.0 0.00 0.00 0.00 41 1021.2
20260507024557 11 0 0.0 0.0 0.00 0.00 0.00 39 1021.2
20260507024043 11 0 0.0 0.0 0.00 0.00 0.00 40 1021.2
20260507023542 11 0 0.0 0.0 0.00 0.00 0.00 40 1021.2
20260507023050 12 0 0.0 0.0 0.00 0.00 0.00 37 1021.2
20260507022540 12 0 0.0 0.0 0.00 0.00 0.00 38 1021.2
20260507022039 12 0 0.0 0.0 0.00 0.00 0.00 36 1021.2
20260507021558 13 0 0.0 0.0 0.00 0.00 0.00 36 1021.2
20260507021044 13 0 0.0 0.0 0.00 0.00 0.00 33 1021.2
20260507020540 14 0 0.0 0.0 0.00 0.00 0.00 33 1021.2
20260507020051 15 0 0.0 0.0 0.00 0.00 0.00 32 1021.2
20260507015539 15 0 0.0 0.0 0.00 0.00 0.00 30 1021.2
20260507015040 15 0 0.0 0.0 0.00 0.00 0.00 29 1021.2
20260507014549 16 0 0.0 0.0 0.00 0.00 0.00 29 1021.2
20260507014040 17 0 0.0 0.0 0.00 0.00 0.00 28 1021.2
20260507013539 17 0 0.0 0.0 0.00 0.00 0.00 27 1021.2
20260507013058 18 0 0.0 0.0 0.00 0.00 0.00 24 1021.2
20260507012539 19 0 0.0 0.0 0.00 0.00 0.00 23 1021.2
20260507012040 19 0 0.0 0.0 0.00 0.00 0.00 22 1021.2
20260507011545 20 0 0.0 0.0 0.00 0.00 0.00 21 1021.2
20260507011039 20 0 0.0 4.8 0.00 0.00 0.00 21 1021.2
20260507010539 20 0 0.0 4.8 0.00 0.00 0.00 20 1021.2
20260507010048 21 328 0.0 8.0 0.00 0.00 0.00 20 1021.2
20260507005541 22 72 0.0 8.0 0.00 0.00 0.00 19 1021.2
20260507005040 22 346 0.0 3.2 0.00 0.00 0.00 19 1021.2
20260507004549 22 0 0.0 9.7 0.00 0.00 0.00 18 1021.2
20260507004040 22 0 0.0 9.7 0.00 0.00 0.00 18 1021.2
20260507003541 22 240 3.2 9.7 0.00 0.00 0.00 18 1021.2
20260507003047 22 345 0.0 8.0 0.00 0.00 0.00 18 1021.2
20260507002540 22 0 0.0 11.3 0.00 0.00 0.00 18 1021.2
20260507002040 23 275 3.2 11.3 0.00 0.00 0.00 18 1021.2
20260507001610 23 0 0.0 11.3 0.00 0.00 0.00 17 1021.2
20260507001039 23 204 0.0 14.5 0.00 0.00 0.00 17 1021.2
20260507000540 22 0 1.6 14.5 0.00 0.00 0.00 17 1021.2
20260507000048 22 214 4.8 14.5 0.00 0.00 0.00 17 1021.2
20260506235539 23 308 1.6 9.7 0.00 0.00 0.00 18 1021.2
20260506235040 23 279 1.6 14.5 0.00 0.00 0.00 19 1021.2
20260506234556 23 0 1.6 20.9 0.00 0.00 0.00 18 1021.2
20260506234039 23 226 9.7 20.9 0.00 0.00 0.00 18 1021.2
20260506233541 23 0 4.8 16.1 0.00 0.00 0.00 20 1021.2
20260506233053 22 0 0.0 19.3 0.00 0.00 0.00 19 1021.2
20260506232539 22 359 4.8 19.3 0.00 0.00 0.00 20 1021.2
20260506232040 22 286 1.6 17.7 0.00 0.00 0.00 19 1021.2
20260506231552 23 257 4.8 20.9 0.00 0.00 0.00 18 1021.2
20260506231039 23 210 6.4 20.9 0.00 0.00 0.00 18 1021.2
20260506230539 23 231 6.4 16.1 0.00 0.00 0.00 18 1021.2
20260506230042 23 247 6.4 16.1 0.00 0.00 0.00 19 1021.2
20260506225543 23 283 0.0 12.9 0.00 0.00 0.00 19 1021.2
20260506225041 23 0 0.0 12.9 0.00 0.00 0.00 21 1021.2
20260506224605 23 222 3.2 16.1 0.00 0.00 0.00 21 1021.2
20260506224039 23 0 3.2 19.3 0.00 0.00 0.00 20 1021.2
20260506223540 23 196 3.2 19.3 0.00 0.00 0.00 22 1021.2
20260506223043 23 203 6.4 17.7 0.00 0.00 0.00 21 1021.2
20260506222541 22 0 1.6 16.1 0.00 0.00 0.00 22 1021.2
20260506222040 22 226 3.2 20.9 0.00 0.00 0.00 21 1021.2
20260506221546 22 230 6.4 20.9 0.00 0.00 0.00 21 1021.2
20260506221039 22 283 9.7 20.9 0.00 0.00 0.00 22 1021.2
20260506220539 22 261 1.6 20.9 0.00 0.00 0.00 22 1021.2
20260506215541 22 226 8.0 22.5 0.00 0.00 0.00 21 1021.2
20260506215041 23 212 12.9 22.5 0.00 0.00 0.00 21 1021.2
20260506214545 23 240 8.0 19.3 0.00 0.00 0.00 21 1021.2
20260506214039 23 191 1.6 20.9 0.00 0.00 0.00 22 1021.2
20260506213539 23 216 6.4 20.9 0.00 0.00 0.00 22 1021.2
20260506213049 23 239 6.4 24.1 0.00 0.00 0.00 22 1021.2
20260506212540 23 244 11.3 24.1 0.00 0.00 0.00 22 1021.2
20260506212040 24 206 8.0 22.5 0.00 0.00 0.00 21 1021.2
20260506211554 24 15 1.6 17.7 0.00 0.00 0.00 20 1021.2
20260506211040 23 316 4.8 17.7 0.00 0.00 0.00 21 1021.2
20260506210540 23 0 3.2 14.5 0.00 0.00 0.00 21 1021.2
20260506210047 23 299 6.4 12.9 0.00 0.00 0.00 21 1021.2
20260506205539 23 319 3.2 19.3 0.00 0.00 0.00 21 1021.2
20260506205039 23 196 6.4 20.9 0.00 0.00 0.00 19 1021.2
20260506204545 23 233 4.8 20.9 0.00 0.00 0.00 22 1021.2
20260506204039 23 183 8.0 20.9 0.00 0.00 0.00 21 1021.2
20260506203540 23 191 3.2 22.5 0.00 0.00 0.00 22 1021.2
20260506203058 22 314 11.3 22.5 0.00 0.00 0.00 21 1021.2
20260506202541 22 229 6.4 22.5 0.00 0.00 0.00 20 1021.2
20260506202039 22 241 9.7 19.3 0.00 0.00 0.00 22 1021.2
20260506201551 22 0 6.4 19.3 0.00 0.00 0.00 22 1021.2
20260506201040 22 221 8.0 17.7 0.00 0.00 0.00 23 1021.2
20260506200539 22 311 8.0 17.7 0.00 0.00 0.00 23 1021.2
20260506200054 22 219 6.4 14.5 0.00 0.00 0.00 23 1021.2
20260506195540 21 160 6.4 14.5 0.00 0.00 0.00 24 1021.2
20260506195041 21 145 3.2 11.3 0.00 0.00 0.00 25 1021.2
20260506194553 21 186 1.6 12.9 0.00 0.00 0.00 24 1021.2
20260506194040 21 249 3.2 14.5 0.00 0.00 0.00 24 1021.2
20260506193540 21 349 6.4 19.3 0.00 0.00 0.00 25 1021.2
20260506193052 21 234 4.8 19.3 0.00 0.00 0.00 25 1021.2
20260506192540 21 213 6.4 16.1 0.00 0.00 0.00 24 1021.2
20260506192040 21 218 6.4 16.1 0.00 0.00 0.00 23 1021.2
20260506191548 21 196 6.4 20.9 0.00 0.00 0.00 24 1021.2
20260506191040 21 217 6.4 22.5 0.00 0.00 0.00 22 1021.2
20260506190542 21 263 14.5 22.5 0.00 0.00 0.00 22 1021.2
20260506190045 21 183 6.4 20.9 0.00 0.00 0.00 23 1021.2
20260506185539 21 253 12.9 20.9 0.00 0.00 0.00 25 1021.2
20260506185040 21 246 6.4 16.1 0.00 0.00 0.00 25 1021.2
20260506184543 21 348 4.8 14.5 0.00 0.00 0.00 27 1021.2
20260506184040 21 317 4.8 17.7 0.00 0.00 0.00 25 1021.2
20260506183543 21 328 3.2 22.5 0.00 0.00 0.00 27 1021.2
20260506183058 20 204 8.0 22.5 0.00 0.00 0.00 25 1021.2
20260506182540 21 226 4.8 17.7 0.00 0.00 0.00 27 1021.2
20260506182039 20 295 8.0 17.7 0.00 0.00 0.00 28 1021.2
20260506181559 20 212 6.4 17.7 0.00 0.00 0.00 28 1021.2
20260506181040 20 278 6.4 17.7 0.00 0.00 0.00 28 1021.2